| time (UTC) | temp F | wind direction | speed MPH | gust MPH | rain 1hr in | rain 24hr in | rain mn in | humidity % | barometer mb |
| 20260507011930 | 53 | 129 | 0.0 | 0.0 | 0.00 | 0.00 | 0.00 | 1013.6 | |
| 20260507010940 | 53 | 142 | 0.0 | 4.0 | 0.00 | 0.00 | 0.00 | 1013.5 | |
| 20260507010057 | 53 | 123 | 0.0 | 0.0 | 0.00 | 0.00 | 0.00 | 1013.5 | |
| 20260507005230 | 53 | 218 | 9.0 | 11.0 | 0.00 | 0.00 | 0.00 | 1013.4 | |
| 20260507004346 | 53 | 136 | 0.0 | 0.0 | 0.00 | 0.00 | 0.00 | 1013.5 | |
| 20260507003326 | 53 | 137 | 0.0 | 0.0 | 0.00 | 0.00 | 0.00 | 1013.5 | |
| 20260507002357 | 53 | 133 | 0.0 | 0.0 | 0.00 | 0.00 | 0.00 | 1013.3 | |
| 20260507001404 | 53 | 201 | 4.0 | 9.0 | 0.00 | 0.00 | 0.00 | 1013.3 | |
| 20260507000547 | 53 | 176 | 2.0 | 9.0 | 0.00 | 0.00 | 0.00 | 1013.1 | |
| 20260506235637 | 53 | 152 | 0.0 | 4.0 | 0.00 | 0.00 | 0.00 | 1013.0 | |
| 20260506234700 | 53 | 139 | 0.0 | 0.0 | 0.00 | 0.00 | 0.00 | 1013.0 | |
| 20260506233805 | 53 | 143 | 2.0 | 4.0 | 0.00 | 0.00 | 0.00 | 1012.9 | |
| 20260506232927 | 54 | 147 | 7.0 | 9.0 | 0.00 | 0.00 | 0.00 | 1013.2 | |
| 20260506231930 | 55 | 167 | 4.0 | 9.0 | 0.00 | 0.00 | 0.00 | 1013.2 | |
| 20260506231001 | 55 | 134 | 0.0 | 0.0 | 0.00 | 0.00 | 0.00 | 1013.1 | |
| 20260506230036 | 54 | 133 | 2.0 | 9.0 | 0.00 | 0.00 | 0.00 | 1013.0 | |
| 20260506225217 | 53 | 136 | 0.0 | 4.0 | 0.00 | 0.00 | 0.00 | 1012.9 | |
| 20260506224340 | 52 | 129 | 0.0 | 0.0 | 0.00 | 0.00 | 0.00 | 1012.5 | |
| 20260506223426 | 51 | 131 | 0.0 | 0.0 | 0.00 | 0.00 | 0.00 | 1012.2 | |
| 20260506222530 | 51 | 130 | 0.0 | 0.0 | 0.00 | 0.00 | 0.00 | 1012.4 | |
| 20260506221630 | 51 | 136 | 0.0 | 0.0 | 0.00 | 0.00 | 0.00 | 1012.5 | |
| 20260506220637 | 52 | 136 | 0.0 | 0.0 | 0.00 | 0.00 | 0.00 | 1012.4 | |
| 20260506215840 | 52 | 148 | 0.0 | 0.0 | 0.00 | 0.00 | 0.00 | 1012.4 | |
| 20260506214937 | 53 | 134 | 0.0 | 0.0 | 0.00 | 0.00 | 0.00 | 1012.3 | |
| 20260506214030 | 54 | 138 | 0.0 | 0.0 | 0.00 | 0.00 | 0.00 | 1012.1 | |
| 20260506213142 | 54 | 137 | 0.0 | 0.0 | 0.00 | 0.00 | 0.00 | 1012.3 | |
| 20260506212310 | 53 | 137 | 0.0 | 0.0 | 0.00 | 0.00 | 0.00 | 1012.5 | |
| 20260506211408 | 52 | 137 | 0.0 | 0.0 | 0.00 | 0.00 | 0.00 | 1012.3 | |
| 20260506210430 | 53 | 136 | 0.0 | 0.0 | 0.00 | 0.00 | 0.00 | 1012.2 | |
| 20260506205510 | 53 | 136 | 0.0 | 0.0 | 0.00 | 0.00 | 0.00 | 1012.3 | |
| 20260506204647 | 54 | 136 | 0.0 | 0.0 | 0.00 | 0.00 | 0.00 | 1012.3 | |
| 20260506203820 | 54 | 137 | 0.0 | 0.0 | 0.00 | 0.00 | 0.00 | 1012.2 | |
| 20260506202847 | 54 | 136 | 0.0 | 0.0 | 0.00 | 0.00 | 0.00 | 1012.3 | |
| 20260506202030 | 54 | 136 | 0.0 | 0.0 | 0.00 | 0.00 | 0.00 | 1012.3 | |
| 20260506201127 | 54 | 136 | 0.0 | 0.0 | 0.00 | 0.00 | 0.00 | 1012.4 | |
| 20260506200105 | 53 | 132 | 0.0 | 0.0 | 0.00 | 0.00 | 0.00 | 1012.2 | |
| 20260506195226 | 53 | 132 | 0.0 | 0.0 | 0.00 | 0.00 | 0.00 | 1012.2 | |
| 20260506194240 | 53 | 132 | 0.0 | 0.0 | 0.00 | 0.00 | 0.00 | 1012.3 | |
| 20260506193440 | 54 | 132 | 0.0 | 0.0 | 0.00 | 0.00 | 0.00 | 1012.2 | |
| 20260506192540 | 54 | 132 | 0.0 | 0.0 | 0.00 | 0.00 | 0.00 | 1012.1 | |
| 20260506191610 | 54 | 132 | 0.0 | 0.0 | 0.00 | 0.00 | 0.00 | 1012.1 | |
| 20260506190750 | 55 | 132 | 0.0 | 0.0 | 0.00 | 0.00 | 0.00 | 1012.2 | |
| 20260506185828 | 55 | 132 | 0.0 | 0.0 | 0.00 | 0.00 | 0.00 | 1012.1 | |
| 20260506184946 | 56 | 132 | 0.0 | 0.0 | 0.00 | 0.00 | 0.00 | 1012.2 | |
| 20260506184001 | 57 | 132 | 0.0 | 0.0 | 0.00 | 0.00 | 0.00 | 1012.2 | |
| 20260506183107 | 57 | 132 | 0.0 | 0.0 | 0.00 | 0.00 | 0.00 | 1011.9 | |
| 20260506182110 | 59 | 132 | 0.0 | 0.0 | 0.00 | 0.00 | 0.00 | 1011.8 | |
| 20260506181309 | 59 | 132 | 0.0 | 0.0 | 0.00 | 0.00 | 0.00 | 1011.7 | |
| 20260506180320 | 60 | 132 | 0.0 | 0.0 | 0.00 | 0.00 | 0.00 | 1011.8 | |
| 20260506175326 | 61 | 132 | 0.0 | 0.0 | 0.00 | 0.00 | 0.00 | 1011.7 | |
| 20260506174417 | 63 | 131 | 0.0 | 0.0 | 0.00 | 0.00 | 0.00 | 1011.7 | |
| 20260506173406 | 64 | 132 | 0.0 | 0.0 | 0.00 | 0.00 | 0.00 | 1011.9 | |
| 20260506172450 | 65 | 138 | 0.0 | 0.0 | 0.00 | 0.00 | 0.00 | 1011.6 | |
| 20260506171437 | 66 | 138 | 0.0 | 0.0 | 0.00 | 0.00 | 0.00 | 1011.6 | |
| 20260506170458 | 66 | 138 | 0.0 | 0.0 | 0.00 | 0.00 | 0.00 | 1011.6 | |
| 20260506165543 | 66 | 144 | 2.0 | 4.0 | 0.00 | 0.00 | 0.00 | 1011.6 | |
| 20260506164630 | 67 | 140 | 0.0 | 0.0 | 0.00 | 0.00 | 0.00 | 1011.7 | |
| 20260506163708 | 67 | 164 | 9.0 | 16.0 | 0.00 | 0.00 | 0.00 | 1011.7 | |
| 20260506162716 | 68 | 141 | 2.0 | 4.0 | 0.00 | 0.00 | 0.00 | 1011.8 | |
| 20260506161912 | 69 | 147 | 0.0 | 4.0 | 0.00 | 0.00 | 0.00 | 1011.8 | |
| 20260506160947 | 69 | 166 | 2.0 | 4.0 | 0.00 | 0.00 | 0.00 | 1011.8 | |
| 20260506160105 | 69 | 153 | 4.0 | 9.0 | 0.00 | 0.00 | 0.00 | 1011.7 | |
| 20260506155106 | 70 | 187 | 22.0 | 29.0 | 0.00 | 0.00 | 0.00 | 1011.8 | |
| 20260506154026 | 70 | 139 | 4.0 | 9.0 | 0.00 | 0.00 | 0.00 | 1011.9 | |
| 20260506153106 | 70 | 189 | 27.0 | 38.0 | 0.00 | 0.00 | 0.00 | 1011.8 | |
| 20260506152120 | 69 | 149 | 4.0 | 9.0 | 0.00 | 0.00 | 0.00 | 1012.0 | |
| 20260506151130 | 69 | 142 | 13.0 | 16.0 | 0.00 | 0.00 | 0.00 | 1011.9 | |
| 20260506150206 | 69 | 122 | 11.0 | 16.0 | 0.00 | 0.00 | 0.00 | 1011.9 | |
| 20260506145237 | 69 | 173 | 20.0 | 25.0 | 0.00 | 0.00 | 0.00 | 1011.7 | |
| 20260506144226 | 70 | 164 | 20.0 | 25.0 | 0.00 | 0.00 | 0.00 | 1011.7 | |
| 20260506143307 | 70 | 164 | 13.0 | 29.0 | 0.00 | 0.00 | 0.00 | 1012.0 | |
| 20260506142340 | 70 | 187 | 20.0 | 34.0 | 0.00 | 0.00 | 0.00 | 1011.8 | |
| 20260506141500 | 70 | 172 | 22.0 | 29.0 | 0.00 | 0.00 | 0.00 | 1011.8 | |
| 20260506140635 | 70 | 160 | 22.0 | 29.0 | 0.00 | 0.00 | 0.00 | 1011.7 | |
| 20260506135805 | 70 | 143 | 20.0 | 20.0 | 0.00 | 0.00 | 0.00 | 1011.6 | |
| 20260506134927 | 70 | 170 | 13.0 | 16.0 | 0.00 | 0.00 | 0.00 | 1011.5 | |
| 20260506133951 | 71 | 187 | 22.0 | 34.0 | 0.00 | 0.00 | 0.00 | 1011.6 | |
| 20260506132947 | 71 | 193 | 13.0 | 16.0 | 0.00 | 0.00 | 0.00 | 1011.2 | |
| 20260506132105 | 71 | 174 | 22.0 | 45.0 | 0.00 | 0.00 | 0.00 | 1011.3 | |
| 20260506131127 | 71 | 155 | 11.0 | 11.0 | 0.00 | 0.00 | 0.00 | 1011.1 | |
| 20260506130247 | 70 | 169 | 7.0 | 9.0 | 0.00 | 0.00 | 0.00 | 1011.3 | |
| 20260506125440 | 70 | 161 | 18.0 | 25.0 | 0.00 | 0.00 | 0.00 | 1011.3 | |
| 20260506124615 | 70 | 148 | 9.0 | 11.0 | 0.00 | 0.00 | 0.00 | 1011.4 | |
| 20260506123630 | 70 | 176 | 27.0 | 34.0 | 0.00 | 0.00 | 0.00 | 1011.2 | |
| 20260506122646 | 70 | 196 | 22.0 | 34.0 | 0.00 | 0.00 | 0.00 | 1011.2 | |
| 20260506121840 | 70 | 184 | 22.0 | 29.0 | 0.00 | 0.00 | 0.00 | 1011.2 | |
| 20260506120857 | 70 | 117 | 13.0 | 16.0 | 0.00 | 0.00 | 0.00 | 1011.1 | |
| 20260506115857 | 70 | 178 | 20.0 | 29.0 | 0.00 | 0.00 | 0.00 | 1010.9 | |
| 20260506114916 | 70 | 166 | 25.0 | 38.0 | 0.00 | 0.00 | 0.00 | 1011.0 | |
| 20260506114048 | 71 | 167 | 27.0 | 34.0 | 0.00 | 0.00 | 0.00 | 1010.9 | |
| 20260506113027 | 72 | 143 | 16.0 | 20.0 | 0.00 | 0.00 | 0.00 | 1010.9 | |
| 20260506112017 | 71 | 135 | 13.0 | 20.0 | 0.00 | 0.00 | 0.00 | 1011.0 | |
| 20260506105645 | 71 | 193 | 22.0 | 29.0 | 0.00 | 0.00 | 0.00 | 1010.9 | |
| 20260506104730 | 69 | 145 | 11.0 | 11.0 | 0.00 | 0.00 | 0.00 | 1010.9 | |
| 20260506103835 | 69 | 98 | 11.0 | 16.0 | 0.00 | 0.00 | 0.00 | 1010.8 | |
| 20260506103022 | 69 | 85 | 16.0 | 20.0 | 0.00 | 0.00 | 0.00 | 1011.4 | |
| 20260506102120 | 69 | 100 | 13.0 | 20.0 | 0.00 | 0.00 | 0.00 | 1011.3 | |
| 20260506101315 | 69 | 133 | 7.0 | 9.0 | 0.00 | 0.00 | 0.00 | 1011.4 | |
| 20260506100242 | 68 | 79 | 9.0 | 11.0 | 0.00 | 0.00 | 0.00 | 1011.6 | |
| 20260506095310 | 67 | 89 | 9.0 | 9.0 | 0.00 | 0.00 | 0.00 | 1011.4 | |
| 20260506094312 | 66 | 68 | 7.0 | 9.0 | 0.00 | 0.00 | 0.00 | 1011.3 | |
| 20260506093335 | 66 | 171 | 7.0 | 11.0 | 0.00 | 0.00 | 0.00 | 1011.5 | |
| 20260506092532 | 66 | 75 | 13.0 | 20.0 | 0.00 | 0.00 | 0.00 | 1011.7 | |
| 20260506091545 | 65 | 105 | 0.0 | 4.0 | 0.00 | 0.00 | 0.00 | 1011.6 | |
| 20260506090545 | 64 | 69 | 11.0 | 20.0 | 0.00 | 0.00 | 0.00 | 1011.5 | |
| 20260506085545 | 63 | 118 | 2.0 | 9.0 | 0.00 | 0.00 | 0.00 | 1011.7 | |
| 20260506084712 | 62 | 82 | 9.0 | 16.0 | 0.00 | 0.00 | 0.00 | 1011.6 | |
| 20260506083725 | 62 | 86 | 4.0 | 9.0 | 0.00 | 0.00 | 0.00 | 1011.7 | |
| 20260506082826 | 63 | 94 | 20.0 | 29.0 | 0.00 | 0.00 | 0.00 | 1011.9 | |
| 20260506082021 | 62 | 42 | 11.0 | 11.0 | 0.00 | 0.00 | 0.00 | 1011.7 | |
| 20260506081205 | 62 | 69 | 11.0 | 16.0 | 0.00 | 0.00 | 0.00 | 1011.5 | |
| 20260506080217 | 60 | 52 | 13.0 | 20.0 | 0.00 | 0.00 | 0.00 | 1011.8 | |
| 20260506073519 | 59 | 68 | 11.0 | 11.0 | 0.00 | 0.00 | 0.00 | 1012.1 | |
| 20260506072610 | 58 | 77 | 9.0 | 11.0 | 0.00 | 0.00 | 0.00 | 1012.2 | |
| 20260506071639 | 58 | 98 | 18.0 | 20.0 | 0.00 | 0.00 | 0.00 | 1012.2 | |
| 20260506070659 | 58 | 35 | 13.0 | 16.0 | 0.00 | 0.00 | 0.00 | 1012.3 | |
| 20260506061827 | 54 | 35 | 7.0 | 9.0 | 0.00 | 0.00 | 0.00 | 1012.2 | |
| 20260506061005 | 53 | 65 | 2.0 | 9.0 | 0.00 | 0.00 | 0.00 | 1012.4 | |
| 20260506051210 | 50 | 269 | 16.0 | 20.0 | 0.00 | 0.00 | 0.00 | 1013.0 | |
| 20260506050350 | 50 | 22 | 20.0 | 25.0 | 0.00 | 0.00 | 0.00 | 1013.0 | |
| 20260506044637 | 50 | 334 | 27.0 | 34.0 | 0.00 | 0.00 | 0.00 | 1013.2 | |
| 20260506043808 | 50 | 65 | 9.0 | 11.0 | 0.00 | 0.00 | 0.00 | 1012.9 | |
| 20260506042859 | 49 | 44 | 13.0 | 16.0 | 0.00 | 0.00 | 0.00 | 1013.1 | |
| 20260506042010 | 49 | 83 | 11.0 | 16.0 | 0.00 | 0.00 | 0.00 | 1013.0 | |
| 20260506041027 | 48 | 30 | 16.0 | 20.0 | 0.00 | 0.00 | 0.00 | 1013.3 | |
| 20260506040139 | 48 | 83 | 7.0 | 9.0 | 0.00 | 0.00 | 0.00 | 1013.5 | |
| 20260506035252 | 48 | 135 | 4.0 | 4.0 | 0.00 | 0.00 | 0.00 | 1013.6 | |
| 20260506034419 | 48 | 81 | 9.0 | 11.0 | 0.00 | 0.00 | 0.00 | 1013.5 | |
| 20260506033600 | 47 | 85 | 2.0 | 4.0 | 0.00 | 0.00 | 0.00 | 1013.4 | |
| 20260506032757 | 47 | 121 | 2.0 | 4.0 | 0.00 | 0.00 | 0.00 | 1013.5 | |
| 20260506031835 | 47 | 131 | 4.0 | 4.0 | 0.00 | 0.00 | 0.00 | 1013.4 | |
| 20260506031017 | 47 | 40 | 7.0 | 9.0 | 0.00 | 0.00 | 0.00 | 1013.6 | |
| 20260506030047 | 47 | 276 | 9.0 | 11.0 | 0.00 | 0.00 | 0.00 | 1013.5 | |
| 20260506025110 | 47 | 131 | 4.0 | 9.0 | 0.00 | 0.00 | 0.00 | 1013.5 | |
| 20260506024139 | 47 | 100 | 4.0 | 4.0 | 0.00 | 0.00 | 0.00 | 1013.8 | |
| 20260506023247 | 47 | 117 | 2.0 | 4.0 | 0.00 | 0.00 | 0.00 | 1013.7 | |
| 20260506022246 | 47 | 38 | 4.0 | 9.0 | 0.00 | 0.00 | 0.00 | 1013.6 | |
| 20260506021255 | 47 | 102 | 4.0 | 4.0 | 0.00 | 0.00 | 0.00 | 1013.8 | |
| 20260506020419 | 47 | 132 | 2.0 | 4.0 | 0.00 | 0.00 | 0.00 | 1013.7 | |
| 20260506015510 | 47 | 328 | 11.0 | 11.0 | 0.00 | 0.00 | 0.00 | 1013.7 | |
| 20260506014450 | 47 | 78 | 4.0 | 9.0 | 0.00 | 0.00 | 0.00 | 1013.9 | |
| 20260506013602 | 48 | 295 | 11.0 | 16.0 | 0.00 | 0.00 | 0.00 | 1013.9 | |
| 20260506012750 | 48 | 354 | 11.0 | 11.0 | 0.00 | 0.00 | 0.00 | 1014.0 |